20041110,000014,632380,33.654621,-118.194867,3.6,17.826,33.097,43.637,904.23,0.0,0.513, NaN, NaN, NaN,23.817,   NaN,16.81,1018.72,71.45,16.71,20.2,11.7,11.2,11.7,299.3,281.5,5.7,5.7,NaN, NaN,22.6,258.4,257.8,1100044815,1100044815,1,12.2,000013,000015,257.7,33.654555,-118.194943,NaN,NaN,NaN,17.983, NaN,NaN,NaN, NaN, NaN
20041110,000044,632410,33.654248,-118.196922,3.5,17.809,33.091,43.615,887.54,0.0,0.527, NaN, NaN, NaN,23.817,   NaN,16.87,1018.72,72.83,16.77,21.2,12.8,11.1,11.6,301.6,284.1,5.7,5.6,NaN, NaN,22.3,258.0,257.5,1100044845,1100044845,1,12.3,000044,000045,257.8,33.654191,-118.196932,NaN,NaN,NaN,17.966, NaN,NaN,NaN, NaN, NaN
20041110,000113,632438,33.653901,-118.198850,3.6,17.803,33.089,43.606,868.70,0.0,0.521, NaN, NaN, NaN,23.816,   NaN,16.88,1018.70,72.93,16.71,22.1,13.8,11.0,11.5,303.7,286.4,5.7,5.6,NaN, NaN,22.2,256.3,257.4,1100044875,1100044875,1,12.3,000073,000075,257.3,33.653830,-118.198925,NaN,NaN,NaN,17.960, NaN,NaN,NaN, NaN, NaN
20041110,000144,632469,33.653525,-118.200905,3.5,17.795,33.087,43.595,865.11,0.0,0.516, NaN, NaN, NaN,23.816,   NaN,16.90,1018.72,73.62,16.68,21.0,12.8,11.0,11.5,301.9,284.4,5.6,5.5,NaN, NaN,22.5,258.2,257.3,1100044905,1100044905,1,12.3,000104,000105,257.3,33.653475,-118.200910,NaN,NaN,NaN,17.952, NaN,NaN,NaN, NaN, NaN
20041110,000214,632499,33.653160,-118.202895,3.6,17.806,33.087,43.605,860.01,0.0,0.524, NaN, NaN, NaN,23.813,   NaN,16.86,1018.69,72.69,16.71,21.7,13.1,11.0,11.5,303.2,285.2,5.6,5.5,NaN, NaN,22.6,258.2,257.5,1100044936,1100044935,1,12.2,000134,000135,256.9,33.653111,-118.202898,NaN,NaN,NaN,17.963, NaN,NaN,NaN, NaN, NaN
20041110,000244,632529,33.652790,-118.204887,3.6,17.828,33.087,43.627,852.79,0.0,0.525, NaN, NaN, NaN,23.808,   NaN,16.86,1018.70,73.31,16.74,23.3,14.2,10.9,11.4,306.5,287.7,5.6,5.5,NaN, NaN,22.7,258.5,257.7,1100044965,1100044965,1,12.3,000164,000165,257.6,33.652750,-118.204883,NaN,NaN,NaN,17.985, NaN,NaN,NaN, NaN, NaN
20041110,000313,632558,33.652421,-118.206880,3.6,17.853,33.088,43.652,845.36,0.0,0.518, NaN, NaN, NaN,23.804,   NaN,16.84,1018.71,72.88,16.64,23.7,14.7,11.1,11.6,306.1,288.0,5.9,5.7,NaN, NaN,22.9,257.7,257.8,1100044995,1100044995,1,12.3,000194,000195,257.7,33.652381,-118.206877,NaN,NaN,NaN,18.009, NaN,NaN,NaN, NaN, NaN
20041110,000344,632589,33.652053,-118.208872,3.6,17.873,33.090,43.674,830.97,0.0,0.518, NaN, NaN, NaN,23.801,   NaN,16.78,1018.73,72.24,16.58,23.4,14.5,11.4,11.9,304.5,286.9,6.1,6.0,NaN, NaN,23.0,256.7,257.3,1100045025,1100045025,1,12.3,000224,000225,257.0,33.652016,-118.208872,NaN,NaN,NaN,18.029, NaN,NaN,NaN, NaN, NaN
20041110,000414,632619,33.651666,-118.210933,3.6,17.870,33.099,43.681,822.01,0.0,0.485, NaN, NaN, NaN,23.808,   NaN,16.74,1018.72,72.37,16.58,24.2,15.0,11.6,12.1,305.7,287.9,6.4,6.2,NaN, NaN,22.9,258.9,257.5,1100045056,1100045055,1,12.2,000255,000255,257.9,33.651640,-118.210868,NaN,NaN,NaN,18.026, NaN,NaN,NaN, NaN, NaN
20041110,000444,632649,33.651308,-118.212860,3.6,17.855,33.107,43.676,811.93,0.0,0.496, NaN, NaN, NaN,23.818,   NaN,16.75,1018.70,72.53,16.55,24.9,15.9,11.5,12.0,307.0,289.6,6.4,6.2,NaN, NaN,22.7,257.4,257.5,1100045085,1100045085,1,12.3,000284,000285,258.0,33.651281,-118.212800,NaN,NaN,NaN,18.011, NaN,NaN,NaN, NaN, NaN
20041110,000515,632680,33.650948,-118.214855,3.6,17.850,33.114,43.680,805.78,0.0,0.493, NaN, NaN, NaN,23.825,   NaN,16.75,1018.72,72.38,16.55,23.1,14.4,11.2,11.7,305.4,287.8,5.9,5.8,NaN, NaN,22.7,257.5,257.6,1100045116,1100045115,1,12.3,000314,000315,257.9,33.650906,-118.214857,NaN,NaN,NaN,18.006, NaN,NaN,NaN, NaN, NaN
20041110,000545,632710,33.650580,-118.216918,3.6,17.857,33.116,43.688,800.13,0.0,0.543, NaN, NaN, NaN,23.824,   NaN,16.75,1018.71,72.44,16.55,21.7,13.2,11.0,11.6,303.6,285.6,5.7,5.6,NaN, NaN,22.6,257.2,257.7,1100045146,1100045145,1,12.3,000345,000345,257.6,33.650545,-118.216855,NaN,NaN,NaN,18.013, NaN,NaN,NaN, NaN, NaN
20041110,000615,632740,33.650245,-118.218855,3.6,17.868,33.113,43.696,795.11,0.0,0.499, NaN, NaN, NaN,23.820,   NaN,16.71,1018.69,71.78,16.47,22.5,13.7,10.9,11.4,306.0,287.3,5.6,5.5,NaN, NaN,22.7,256.4,258.3,1100045176,1100045175,1,12.3,000374,000375,257.5,33.650195,-118.218858,NaN,NaN,NaN,18.024, NaN,NaN,NaN, NaN, NaN
20041110,000645,632770,33.649885,-118.220923,3.6,17.877,33.116,43.708,781.31,0.0,0.481, NaN, NaN, NaN,23.820,   NaN,16.75,1018.71,72.68,16.55,22.9,13.9,10.7,11.2,307.2,288.4,5.5,5.3,NaN, NaN,22.9,257.2,258.3,1100045206,1100045205,1,12.3,000405,000405,257.7,33.649843,-118.220852,NaN,NaN,NaN,18.033, NaN,NaN,NaN, NaN, NaN
20041110,000715,632801,33.649545,-118.222858,3.6,17.878,33.119,43.712,771.27,0.0,0.486, NaN, NaN, NaN,23.822,   NaN,16.79,1018.70,72.71,16.58,22.8,13.5,10.7,11.2,307.1,287.6,5.5,5.3,NaN, NaN,22.9,260.0,258.3,1100045236,1100045235,1,12.3,000434,000435,258.0,33.649495,-118.222850,NaN,NaN,NaN,18.034, NaN,NaN,NaN, NaN, NaN
20041110,000745,632831,33.649181,-118.224925,3.6,17.879,33.116,43.711,758.68,0.0,0.486, NaN, NaN, NaN,23.819,   NaN,16.75,1018.62,72.04,16.50,25.6,16.1,11.1,11.6,310.2,291.2,6.0,5.8,NaN, NaN,23.0,257.6,258.3,1100045266,1100045265,1,12.3,000465,000465,258.1,33.649145,-118.224855,NaN,NaN,NaN,18.035, NaN,NaN,NaN, NaN, NaN
20041110,000814,632859,33.648818,-118.226927,3.6,17.883,33.116,43.714,751.25,0.0,0.487, NaN, NaN, NaN,23.818,   NaN,16.75,1018.59,72.47,16.55,29.5,20.0,11.4,11.9,314.7,297.3,6.6,6.3,NaN, NaN,23.4,257.3,257.4,1100045296,1100045295,1,12.3,000495,000495,257.5,33.648781,-118.226860,NaN,NaN,NaN,18.039, NaN,NaN,NaN, NaN, NaN
20041110,000844,632890,33.648458,-118.228863,3.6,17.884,33.120,43.720,748.51,0.0,0.483, NaN, NaN, NaN,23.821,   NaN,16.71,1018.63,72.02,16.47,32.0,22.4,11.6,12.0,317.9,301.4,7.0,6.5,NaN, NaN,23.5,257.6,257.5,1100045325,1100045325,1,12.3,000524,000525,257.5,33.648410,-118.228865,NaN,NaN,NaN,18.040, NaN,NaN,NaN, NaN, NaN
20041110,000915,632920,33.648060,-118.231000,3.6,17.881,33.127,43.724,739.89,0.0,0.477, NaN, NaN, NaN,23.827,   NaN,16.72,1018.68,72.62,16.50,30.5,20.7,11.7,12.1,315.1,297.9,7.0,6.5,NaN, NaN,23.9,256.8,257.6,1100045357,1100045355,1,12.4,000556,000555,257.6,33.648025,-118.230883,NaN,NaN,NaN,18.037, NaN,NaN,NaN, NaN, NaN
20041110,000945,632950,33.647691,-118.232935,3.6,17.867,33.134,43.721,725.68,0.0,0.475, NaN, NaN, NaN,23.837,   NaN,16.71,1018.70,72.03,16.47,27.5,17.9,11.7,12.1,310.4,292.8,6.7,6.4,NaN, NaN,24.0,256.1,257.0,1100045386,1100045385,1,12.4,000585,000585,257.4,33.647651,-118.232887,NaN,NaN,NaN,18.023, NaN,NaN,NaN, NaN, NaN
20041110,001016,632981,33.647313,-118.234943,3.6,17.850,33.142,43.714,717.51,0.0,0.464, NaN, NaN, NaN,23.846,   NaN,16.75,1018.72,72.75,16.50,25.8,16.5,11.4,11.9,308.9,290.9,6.3,6.1,NaN, NaN,24.5,258.0,257.0,1100045417,1100045415,1,12.4,000615,000615,257.9,33.647251,-118.234875,NaN,NaN,NaN,18.006, NaN,NaN,NaN, NaN, NaN
20041110,001045,633010,33.646945,-118.236952,3.6,17.840,33.146,43.709,704.90,0.0,0.465, NaN, NaN, NaN,23.852,   NaN,16.78,1018.67,73.50,16.55,26.2,16.8,11.2,11.7,310.7,292.5,6.2,5.9,NaN, NaN,24.6,256.8,257.6,1100045446,1100045445,1,12.4,000645,000645,257.5,33.646896,-118.236870,NaN,NaN,NaN,17.997, NaN,NaN,NaN, NaN, NaN
20041110,001114,633039,33.646588,-118.238960,3.6,17.825,33.154,43.705,699.26,0.0,0.454, NaN, NaN, NaN,23.861,   NaN,16.81,1018.67,73.57,16.55,28.3,18.9,11.1,11.6,314.8,296.9,6.3,6.0,NaN, NaN,25.1,259.1,257.8,1100045476,1100045475,1,12.4,000675,000675,257.5,33.646553,-118.238892,NaN,NaN,NaN,17.982, NaN,NaN,NaN, NaN, NaN
20041110,001145,633070,33.646225,-118.240965,3.6,17.811,33.157,43.695,692.86,0.0,0.445, NaN, NaN, NaN,23.867,   NaN,16.76,1018.68,73.14,16.53,30.0,20.5,11.1,11.6,317.4,299.9,6.4,6.1,NaN, NaN,25.0,257.9,258.2,1100045506,1100045505,1,12.3,000705,000705,257.9,33.646185,-118.240895,NaN,NaN,NaN,17.968, NaN,NaN,NaN, NaN, NaN
20041110,001215,633100,33.645860,-118.243033,3.6,17.800,33.130,43.653,685.67,0.0,0.443, NaN, NaN, NaN,23.849,   NaN,16.78,1018.72,73.36,16.53,28.5,19.3,11.2,11.7,314.8,297.6,6.4,6.1,NaN, NaN,24.9,258.8,258.3,1100045537,1100045535,1,12.3,000736,000735,258.3,33.645825,-118.242895,NaN,NaN,NaN,17.957, NaN,NaN,NaN, NaN, NaN
20041110,001245,633131,33.645518,-118.244972,3.6,17.793,33.164,43.686,682.75,0.0,0.442, NaN, NaN, NaN,23.877,   NaN,16.71,1018.71,72.61,16.50,27.4,17.9,11.3,11.7,312.8,295.0,6.4,6.0,NaN, NaN,25.3,257.5,258.2,1100045566,1100045565,1,12.3,000765,000765,258.4,33.645463,-118.244900,NaN,NaN,NaN,17.950, NaN,NaN,NaN, NaN, NaN
20041110,001316,633161,33.645161,-118.247047,3.6,17.790,33.168,43.688,682.06,0.0,0.436, NaN, NaN, NaN,23.881,   NaN,16.75,1018.71,73.77,16.55,27.5,18.1,11.1,11.5,313.8,295.9,6.2,5.9,NaN, NaN,24.9,258.6,258.2,1100045597,1100045595,1,12.3,000796,000795,257.9,33.645098,-118.246917,NaN,NaN,NaN,17.947, NaN,NaN,NaN, NaN, NaN
20041110,001345,633190,33.644821,-118.248995,3.6,17.790,33.170,43.691,678.37,0.0,0.440, NaN, NaN, NaN,23.883,   NaN,16.74,1018.73,73.17,16.55,27.0,17.7,11.0,11.5,313.4,295.4,6.1,5.8,NaN, NaN,25.0,257.7,258.6,1100045626,1100045625,1,12.3,000825,000825,257.9,33.644770,-118.248845,NaN,NaN,NaN,17.947, NaN,NaN,NaN, NaN, NaN
20041110,001415,633220,33.644461,-118.250998,3.6,17.784,33.174,43.691,670.94,0.0,0.424, NaN, NaN, NaN,23.888,   NaN,16.72,1018.69,72.99,16.47,26.7,17.4,11.4,11.9,311.2,293.5,6.4,6.1,NaN, NaN,25.1,257.5,257.9,1100045656,1100045655,1,12.4,000855,000855,258.3,33.644405,-118.250903,NaN,NaN,NaN,17.941, NaN,NaN,NaN, NaN, NaN
20041110,001445,633250,33.644105,-118.252998,3.6,17.772,33.180,43.688,661.18,0.0,0.420, NaN, NaN, NaN,23.895,   NaN,16.74,1018.69,73.87,16.55,29.5,20.0,11.6,12.0,314.4,297.3,6.8,6.5,NaN, NaN,25.6,257.6,257.4,1100045686,1100045685,1,12.3,000885,000885,257.3,33.644061,-118.252908,NaN,NaN,NaN,17.930, NaN,NaN,NaN, NaN, NaN
20041110,001516,633281,33.643725,-118.255062,3.6,17.763,33.190,43.690,647.11,0.0,0.415, NaN, NaN, NaN,23.905,   NaN,16.75,1018.68,73.36,16.55,30.9,21.6,11.7,12.1,316.2,299.8,7.0,6.7,NaN, NaN,27.3,257.4,257.7,1100045717,1100045715,1,12.3,000916,000915,256.9,33.643705,-118.254907,NaN,NaN,NaN,17.921, NaN,NaN,NaN, NaN, NaN
20041110,001545,633311,33.643356,-118.256987,3.6,17.756,33.195,43.690,639.06,0.0,0.402, NaN, NaN, NaN,23.910,   NaN,16.75,1018.72,72.89,16.40,30.7,21.2,11.7,12.1,315.6,298.9,7.0,6.7,NaN, NaN,27.6,258.1,257.5,1100045746,1100045745,1,12.3,000945,000945,257.6,33.643320,-118.256912,NaN,NaN,NaN,17.914, NaN,NaN,NaN, NaN, NaN
20041110,001616,633341,33.642961,-118.259048,3.6,17.750,33.199,43.689,625.88,0.0,0.397, NaN, NaN, NaN,23.915,   NaN,16.74,1018.74,73.66,16.50,31.2,21.5,11.2,11.7,317.8,300.4,6.7,6.3,NaN, NaN,27.1,257.3,256.6,1100045777,1100045775,1,12.3,000976,000975,256.5,33.642950,-118.258890,NaN,NaN,NaN,17.908, NaN,NaN,NaN, NaN, NaN
20041110,001646,633371,33.642563,-118.261038,3.6,17.739,33.207,43.688,611.09,0.0,0.379, NaN, NaN, NaN,23.924,   NaN,16.71,1018.71,72.36,16.40,30.3,20.6,11.2,11.7,316.4,298.8,6.6,6.2,NaN, NaN,27.1,255.8,256.5,1100045807,1100045805,1,12.3,001006,001005,256.8,33.642546,-118.260880,NaN,NaN,NaN,17.897, NaN,NaN,NaN, NaN, NaN
20041110,001716,633402,33.642170,-118.263025,3.6,17.726,33.211,43.680,601.85,0.0,0.378, NaN, NaN, NaN,23.930,   NaN,16.75,1018.75,72.95,16.47,29.0,19.4,11.3,11.8,313.9,296.4,6.6,6.2,NaN, NaN,26.9,257.1,256.8,1100045837,1100045835,1,12.3,001036,001035,257.7,33.642151,-118.262868,NaN,NaN,NaN,17.884, NaN,NaN,NaN, NaN, NaN
20041110,001746,633431,33.641795,-118.265018,3.6,17.728,33.214,43.685,589.85,0.0,0.387, NaN, NaN, NaN,23.932,   NaN,16.71,1018.74,72.68,16.44,27.6,18.2,11.5,11.9,311.6,294.2,6.6,6.3,NaN, NaN,27.2,257.3,257.2,1100045867,1100045865,1,12.3,001066,001065,257.9,33.641766,-118.264887,NaN,NaN,NaN,17.886, NaN,NaN,NaN, NaN, NaN
20041110,001815,633460,33.641431,-118.267013,3.6,17.727,33.217,43.689,581.98,0.0,0.366, NaN, NaN, NaN,23.935,   NaN,16.71,1018.75,73.02,16.47,26.3,17.1,11.6,12.1,309.5,292.2,6.6,6.4,NaN, NaN,27.2,257.9,257.6,1100045897,1100045895,1,12.3,001096,001095,258.2,33.641405,-118.266890,NaN,NaN,NaN,17.885, NaN,NaN,NaN, NaN, NaN
20041110,001846,633491,33.641083,-118.269017,3.6,17.708,33.223,43.680,575.95,0.0,0.361, NaN, NaN, NaN,23.944,   NaN,16.69,1018.73,72.62,16.40,26.9,17.7,11.7,12.2,310.8,293.6,6.7,6.5,NaN, NaN,27.5,257.8,258.6,1100045927,1100045925,1,12.3,001126,001125,258.6,33.641061,-118.268882,NaN,NaN,NaN,17.867, NaN,NaN,NaN, NaN, NaN
20041110,001916,633521,33.640740,-118.271017,3.6,17.689,33.226,43.664,565.17,0.0,0.354, NaN, NaN, NaN,23.951,   NaN,16.74,1018.73,72.87,16.40,29.2,20.0,11.5,12.0,315.3,298.8,6.8,6.5,NaN, NaN,27.0,258.8,258.4,1100045957,1100045955,1,12.3,001156,001155,259.4,33.640715,-118.270875,NaN,NaN,NaN,17.848, NaN,NaN,NaN, NaN, NaN
20041110,001946,633552,33.640398,-118.273028,3.6,17.673,33.230,43.653,553.75,0.0,0.340, NaN, NaN, NaN,23.958,   NaN,16.71,1018.73,72.54,16.44,31.7,22.2,11.4,11.9,319.8,303.2,6.9,6.6,NaN, NaN,26.6,259.1,258.2,1100045987,1100045985,1,12.3,001186,001185,258.9,33.640368,-118.272883,NaN,NaN,NaN,17.832, NaN,NaN,NaN, NaN, NaN
20041110,002015,633580,33.640053,-118.275042,3.6,17.651,33.231,43.635,543.21,0.0,0.331, NaN, NaN, NaN,23.964,   NaN,16.70,1018.78,71.93,16.36,31.3,21.6,11.5,12.0,319.4,302.3,7.0,6.5,NaN, NaN,26.7,258.2,258.5,1100046017,1100046015,1,12.3,001216,001215,258.7,33.640010,-118.274892,NaN,NaN,NaN,17.811, NaN,NaN,NaN, NaN, NaN
20041110,002046,633611,33.639710,-118.277055,3.6,17.628,33.229,43.610,531.81,0.0,0.320, NaN, NaN, NaN,23.968,   NaN,16.68,1018.76,71.75,16.29,31.3,21.6,11.4,11.9,319.7,302.7,6.9,6.5,NaN, NaN,26.8,259.2,258.7,1100046047,1100046045,1,12.4,001246,001245,259.1,33.639653,-118.276923,NaN,NaN,NaN,17.788, NaN,NaN,NaN, NaN, NaN
20041110,002115,633641,33.639370,-118.279075,3.6,17.600,33.233,43.589,525.94,0.0,0.318, NaN, NaN, NaN,23.978,   NaN,16.78,1018.81,73.47,16.50,29.8,20.5,11.2,11.6,318.6,301.8,6.6,6.1,NaN, NaN,27.2,259.4,259.0,1100046077,1100046075,1,12.4,001276,001275,259.9,33.639316,-118.278943,NaN,NaN,NaN,17.760, NaN,NaN,NaN, NaN, NaN
20041110,002146,633671,33.639030,-118.281102,3.5,17.575,33.236,43.568,511.18,0.0,0.308, NaN, NaN, NaN,23.985,   NaN,16.72,1018.75,71.39,16.40,28.8,19.4,11.2,11.7,316.8,299.5,6.5,6.1,NaN, NaN,27.0,258.9,258.0,1100046107,1100046105,1,12.4,001306,001305,258.6,33.638981,-118.280937,NaN,NaN,NaN,17.736, NaN,NaN,NaN, NaN, NaN
20041110,002216,633701,33.638663,-118.283115,3.6,17.552,33.238,43.548,500.71,0.0,0.313, NaN, NaN, NaN,23.993,   NaN,16.74,1018.79,71.76,16.36,29.4,20.0,11.5,11.9,316.1,299.0,6.7,6.4,NaN, NaN,26.9,256.5,257.4,1100046137,1100046135,1,12.4,001336,001335,257.7,33.638605,-118.282960,NaN,NaN,NaN,17.713, NaN,NaN,NaN, NaN, NaN
20041110,002246,633732,33.638281,-118.285125,3.5,17.536,33.238,43.534,485.01,0.0,0.313, NaN, NaN, NaN,23.997,   NaN,16.71,1018.77,71.33,16.36,31.5,22.0,11.5,12.0,318.5,302.0,7.0,6.5,NaN, NaN,26.4,256.8,257.5,1100046167,1100046165,1,12.4,001366,001365,257.3,33.638226,-118.284977,NaN,NaN,NaN,17.697, NaN,NaN,NaN, NaN, NaN
20041110,002315,633760,33.637908,-118.287160,3.6,17.532,33.239,43.532,473.24,0.0,0.313, NaN, NaN, NaN,23.998,   NaN,16.75,1018.77,71.82,16.40,31.9,22.3,11.4,11.9,319.1,302.3,6.9,6.5,NaN, NaN,23.6,258.3,256.9,1100046197,1100046195,1,12.4,001396,001395,257.8,33.637836,-118.286985,NaN,NaN,NaN,17.694, NaN,NaN,NaN, NaN, NaN
20041110,002346,633791,33.637511,-118.289170,3.6,17.542,33.239,43.540,463.15,0.0,0.315, NaN, NaN, NaN,23.996,   NaN,16.71,1018.79,71.36,16.36,31.8,22.1,11.3,11.8,319.1,302.1,6.9,6.4,NaN, NaN,23.7,256.1,256.8,1100046227,1100046225,1,12.4,001426,001425,258.0,33.637445,-118.288993,NaN,NaN,NaN,17.703, NaN,NaN,NaN, NaN, NaN
20041110,002416,633821,33.637116,-118.291253,3.6,17.554,33.238,43.551,453.46,0.0,0.316, NaN, NaN, NaN,23.993,   NaN,16.72,1018.78,71.68,16.36,31.0,21.1,11.3,11.8,318.4,300.8,6.7,6.3,NaN, NaN,24.1,256.7,256.6,1100046258,1100046255,1,12.5,001457,001455,258.1,33.637055,-118.291013,NaN,NaN,NaN,17.715, NaN,NaN,NaN, NaN, NaN
20041110,002446,633851,33.636751,-118.293207,3.6,17.564,33.238,43.560,441.60,0.0,0.322, NaN, NaN, NaN,23.990,   NaN,16.69,1018.79,70.86,16.32,30.9,21.1,11.4,11.8,318.4,301.1,6.8,6.4,NaN, NaN,24.3,257.3,257.3,1100046287,1100046285,1,12.4,001486,001485,258.3,33.636681,-118.293033,NaN,NaN,NaN,17.725, NaN,NaN,NaN, NaN, NaN
20041110,002515,633880,33.636503,-118.295242,3.6,17.575,33.237,43.570,433.70,0.0,0.330, NaN, NaN, NaN,23.986,   NaN,16.70,1018.83,70.51,16.32,29.8,20.2,11.6,12.1,319.6,302.7,7.0,6.6,NaN, NaN,24.6,269.0,265.5,1100046317,1100046315,1,12.5,001516,001515,272.4,33.636428,-118.295093,NaN,NaN,NaN,17.736, NaN,NaN,NaN, NaN, NaN
20041110,002546,633912,33.636550,-118.297295,3.6,17.584,33.235,43.576,404.94,0.0,0.334, NaN, NaN, NaN,23.983,   NaN,16.70,1018.88,70.66,16.32,25.1,16.2,11.6,12.1,318.4,301.9,6.7,6.4,NaN, NaN,24.6,271.9,271.8,1100046347,1100046345,1,12.4,001546,001545,272.9,33.636485,-118.297147,NaN,NaN,NaN,17.745, NaN,NaN,NaN, NaN, NaN
20041110,002615,633940,33.636616,-118.299362,3.6,17.580,33.234,43.571,393.24,0.0,0.326, NaN, NaN, NaN,23.983,   NaN,16.71,1018.84,70.42,16.32,20.3,12.4,11.6,12.1,315.9,300.1,6.2,6.1,NaN, NaN,24.3,272.8,272.5,1100046377,1100046375,1,12.4,001576,001575,274.2,33.636558,-118.299212,NaN,NaN,NaN,17.741, NaN,NaN,NaN, NaN, NaN
20041110,002646,633971,33.636691,-118.301425,3.6,17.569,33.233,43.560,382.56,0.0,0.331, NaN, NaN, NaN,23.985,   NaN,16.69,1018.83,70.34,16.36,20.5,12.5,11.5,12.0,317.0,300.8,6.1,6.0,NaN, NaN,24.3,272.5,272.2,1100046407,1100046405,1,12.5,001606,001605,274.1,33.636623,-118.301270,NaN,NaN,NaN,17.730, NaN,NaN,NaN, NaN, NaN
20041110,002717,634003,33.636765,-118.303565,3.6,17.561,33.230,43.549,372.94,0.0,0.339, NaN, NaN, NaN,23.985,   NaN,16.71,1018.88,70.47,16.36,21.2,13.1,11.4,11.9,318.9,302.5,6.0,5.9,NaN, NaN,24.3,272.0,272.1,1100046438,1100046435,1,12.5,001637,001635,273.6,33.636701,-118.303332,NaN,NaN,NaN,17.722, NaN,NaN,NaN, NaN, NaN
20041110,002747,634032,33.636816,-118.305635,3.6,17.560,33.230,43.547,350.32,0.0,0.335, NaN, NaN, NaN,23.984,   NaN,16.69,1018.82,70.21,16.32,22.3,14.0,11.3,11.8,320.9,304.2,6.0,5.9,NaN, NaN,24.1,271.0,271.3,1100046468,1100046465,1,12.4,001667,001665,272.5,33.636760,-118.305402,NaN,NaN,NaN,17.721, NaN,NaN,NaN, NaN, NaN
20041110,002816,634062,33.636845,-118.307707,3.6,17.551,33.230,43.538,343.57,0.0,0.329, NaN, NaN, NaN,23.987,   NaN,16.71,1018.86,70.30,16.36,22.4,14.0,11.3,11.7,320.4,303.3,6.0,5.8,NaN, NaN,23.7,270.7,270.6,1100046498,1100046495,1,12.4,001697,001695,271.0,33.636786,-118.307487,NaN,NaN,NaN,17.712, NaN,NaN,NaN, NaN, NaN
20041110,002846,634092,33.636841,-118.309713,3.6,17.544,33.225,43.527,325.55,0.0,0.343, NaN, NaN, NaN,23.985,   NaN,16.76,1018.87,71.82,16.47,21.2,13.0,11.0,11.5,318.4,301.2,5.7,5.5,NaN, NaN,24.3,270.1,269.7,1100046527,1100046525,1,12.5,001726,001725,270.7,33.636790,-118.309567,NaN,NaN,NaN,17.705, NaN,NaN,NaN, NaN, NaN
20041110,002917,634122,33.636803,-118.311863,3.6,17.549,33.224,43.529,315.81,0.0,0.350, NaN, NaN, NaN,23.982,   NaN,16.76,1018.84,71.17,16.47,20.7,12.5,11.0,11.5,316.5,299.0,5.6,5.5,NaN, NaN,24.3,268.7,268.3,1100046558,1100046555,1,12.5,001757,001755,269.9,33.636753,-118.311645,NaN,NaN,NaN,17.710, NaN,NaN,NaN, NaN, NaN
20041110,002947,634153,33.636751,-118.313938,3.6,17.560,33.222,43.537,312.83,0.0,0.348, NaN, NaN, NaN,23.979,   NaN,16.71,1018.84,70.48,16.36,21.2,12.8,11.2,11.7,316.0,298.5,5.8,5.7,NaN, NaN,25.1,268.2,267.9,1100046588,1100046585,1,12.5,001787,001785,269.6,33.636701,-118.313722,NaN,NaN,NaN,17.721, NaN,NaN,NaN, NaN, NaN
20041110,003017,634182,33.636698,-118.316015,3.6,17.572,33.221,43.548,304.71,0.0,0.350, NaN, NaN, NaN,23.975,   NaN,16.75,1018.83,70.84,16.40,22.2,13.9,11.5,12.0,316.6,299.8,6.1,6.0,NaN, NaN,24.6,267.0,268.2,1100046618,1100046615,1,12.5,001817,001815,269.3,33.636651,-118.315800,NaN,NaN,NaN,17.733, NaN,NaN,NaN, NaN, NaN
20041110,003047,634212,33.636648,-118.318088,3.6,17.579,33.221,43.554,290.73,0.0,0.339, NaN, NaN, NaN,23.973,   NaN,16.71,1018.85,70.12,16.36,22.5,14.4,11.6,12.2,316.7,300.6,6.3,6.2,NaN, NaN,24.8,269.2,268.4,1100046648,1100046645,1,12.4,001847,001845,269.7,33.636601,-118.317872,NaN,NaN,NaN,17.740, NaN,NaN,NaN, NaN, NaN
20041110,003117,634242,33.636615,-118.320163,3.6,17.579,33.219,43.553,273.34,0.0,0.351, NaN, NaN, NaN,23.972,   NaN,16.67,1018.84,69.97,16.36,23.3,14.8,11.5,12.0,319.0,302.3,6.3,6.2,NaN, NaN,24.8,268.8,269.3,1100046678,1100046675,1,12.5,001877,001875,270.8,33.636563,-118.319942,NaN,NaN,NaN,17.740, NaN,NaN,NaN, NaN, NaN
20041110,003147,634272,33.636601,-118.322240,3.6,17.580,33.216,43.550,258.20,0.0,0.353, NaN, NaN, NaN,23.969,   NaN,16.71,1018.81,70.79,16.36,24.4,15.6,11.2,11.7,323.1,305.8,6.1,5.9,NaN, NaN,24.7,271.3,269.9,1100046708,1100046705,1,12.5,001907,001905,272.7,33.636546,-118.322020,NaN,NaN,NaN,17.741, NaN,NaN,NaN, NaN, NaN
20041110,003217,634303,33.636623,-118.324325,3.6,17.585,33.214,43.551,220.22,0.0,0.356, NaN, NaN, NaN,23.966,   NaN,16.73,1018.85,71.39,16.40,23.5,15.3,10.8,11.4,324.3,307.2,5.7,5.6,NaN, NaN,24.6,271.5,270.6,1100046738,1100046735,1,12.5,001937,001935,273.0,33.636575,-118.324103,NaN,NaN,NaN,17.746, NaN,NaN,NaN, NaN, NaN
20041110,003247,634333,33.636670,-118.326477,3.6,17.592,33.211,43.555,157.74,0.0,0.362, NaN, NaN, NaN,23.962,   NaN,16.68,1018.86,71.13,16.44,22.9,14.5,10.7,11.3,324.4,306.8,5.6,5.4,NaN, NaN,24.6,271.4,271.5,1100046769,1100046765,1,12.5,001968,001970,272.7,33.636628,-118.326523,NaN,NaN,NaN,17.753, NaN,NaN,NaN, NaN, NaN
20041110,003317,634362,33.636715,-118.328493,3.5,17.602,33.206,43.557,145.16,0.0,0.369, NaN, NaN, NaN,23.956,   NaN,16.69,1018.90,71.83,16.44,21.0,12.8,11.0,11.5,320.2,302.7,5.7,5.5,NaN, NaN,24.2,270.9,271.9,1100046799,1100046795,1,12.5,001997,001995,272.6,33.636670,-118.328263,NaN,NaN,NaN,17.762, NaN,NaN,NaN, NaN, NaN
20041110,003347,634392,33.636751,-118.330575,3.6,17.611,33.203,43.562,139.58,0.0,0.380, NaN, NaN, NaN,23.951,   NaN,16.62,1018.87,70.49,16.44,20.7,12.8,11.3,11.8,318.1,301.8,5.9,5.8,NaN, NaN,24.4,271.0,271.2,1100046828,1100046825,1,12.5,002027,002025,272.7,33.636701,-118.330347,NaN,NaN,NaN,17.771, NaN,NaN,NaN, NaN, NaN
20041110,003417,634422,33.636768,-118.332655,3.6,17.618,33.200,43.565,152.66,0.0,0.377, NaN, NaN, NaN,23.947,   NaN,16.63,1018.87,70.59,16.40,22.4,14.0,11.3,11.8,320.4,303.5,6.0,5.9,NaN, NaN,24.7,271.2,270.5,1100046858,1100046855,1,12.5,002057,002055,272.4,33.636720,-118.332427,NaN,NaN,NaN,17.778, NaN,NaN,NaN, NaN, NaN
20041110,003448,634453,33.636783,-118.334812,3.6,17.620,33.199,43.566,171.58,0.0,0.381, NaN, NaN, NaN,23.946,   NaN,16.65,1018.93,70.87,16.47,20.4,12.6,11.2,11.7,316.6,300.4,5.8,5.7,NaN, NaN,24.8,270.5,270.1,1100046889,1100046885,1,12.5,002088,002090,271.3,33.636726,-118.334862,NaN,NaN,NaN,17.780, NaN,NaN,NaN, NaN, NaN
20041110,003517,634483,33.636771,-118.336827,3.5,17.615,33.199,43.561,182.40,0.0,0.381, NaN, NaN, NaN,23.948,   NaN,16.67,1018.89,70.55,16.47,18.7,11.3,11.5,12.0,311.7,296.4,5.9,5.9,NaN, NaN,25.0,269.3,269.5,1100046919,1100046915,1,12.5,002117,002115,270.8,33.636720,-118.336603,NaN,NaN,NaN,17.775, NaN,NaN,NaN, NaN, NaN
20041110,003547,634512,33.636753,-118.338915,3.6,17.608,33.199,43.555,182.17,0.0,0.375, NaN, NaN, NaN,23.949,   NaN,16.69,1018.88,70.57,16.47,19.1,11.7,11.7,12.2,311.7,296.3,6.1,6.1,NaN, NaN,24.8,269.5,269.4,1100046948,1100046945,1,12.5,002147,002145,270.6,33.636700,-118.338695,NaN,NaN,NaN,17.768, NaN,NaN,NaN, NaN, NaN
20041110,003618,634543,33.636725,-118.341068,3.6,17.601,33.199,43.548,170.84,0.0,0.380, NaN, NaN, NaN,23.950,   NaN,16.68,1018.89,70.53,16.44,22.4,14.4,11.8,12.3,316.8,301.2,6.4,6.3,NaN, NaN,25.4,268.7,269.3,1100046979,1100046980,1,12.5,002178,002180,271.0,33.636671,-118.341162,NaN,NaN,NaN,17.761, NaN,NaN,NaN, NaN, NaN
20041110,003647,634572,33.636711,-118.343158,3.6,17.594,33.201,43.545,161.51,0.0,0.377, NaN, NaN, NaN,23.954,   NaN,16.67,1018.87,70.97,16.44,23.7,15.3,11.8,12.3,319.0,302.9,6.6,6.4,NaN, NaN,25.4,270.3,269.5,1100047009,1100047005,1,12.5,002208,002210,270.6,33.636651,-118.343240,NaN,NaN,NaN,17.755, NaN,NaN,NaN, NaN, NaN